EW6606 Weather Reports


Display with metric or nautical units.
time (UTC)temp
F
wind
direction
speed
MPH
gust
MPH
rain 1hr
in
rain 24hr
in
rain mn
in
humidity
%
barometer
mb
20260507141856 60 77 2.0 3.0 0.00 0.29 0.29 95 1014.9
20260507141352 60 78 1.0 2.0 0.00 0.29 0.29 95 1014.9
20260507140849 60 41 0.0 3.0 0.00 0.29 0.29 95 1014.8
20260507140346 60 110 0.0 2.0 0.00 0.29 0.29 95 1015.1
20260507135844 60 37 0.0 2.0 0.00 0.29 0.29 95 1015.2
20260507135340 59 142 0.0 3.0 0.00 0.29 0.29 95 1014.6
20260507134838 59 96 1.0 2.0 0.00 0.29 0.29 95 1014.6
20260507134333 59 26 2.0 3.0 0.00 0.29 0.29 95 1014.6
20260507133830 59 19 2.0 3.0 0.00 0.29 0.29 96 1014.6
20260507133325 59 311 0.0 3.0 0.00 0.29 0.29 95 1014.6
20260507132824 59 245 2.0 3.0 0.00 0.29 0.29 95 1014.5
20260507132320 59 57 1.0 3.0 0.00 0.29 0.29 96 1014.5
20260507131818 59 124 0.0 3.0 0.00 0.29 0.29 96 1014.5
20260507131314 59 284 0.0 2.0 0.00 0.29 0.29 95 1014.5
20260507130810 59 55 0.0 2.0 0.00 0.29 0.29 96 1014.1
20260507130308 58 237 0.0 2.0 0.00 0.29 0.29 95 1014.1
20260507125807 58 36 1.0 3.0 0.00 0.29 0.29 96 1014.3
20260507125306 59 66 0.0 2.0 0.00 0.29 0.29 96 1014.1
20260507124801 58 56 1.0 2.0 0.00 0.29 0.29 96 1013.7
20260507124257 58 15 0.0 2.0 0.00 0.29 0.29 96 1013.8
20260507123756 58 210 0.0 3.0 0.00 0.29 0.29 95 1013.6
20260507123253 58 70 1.0 4.0 0.00 0.29 0.29 95 1013.8
20260507122748 58 236 1.0 3.0 0.00 0.29 0.29 95 1013.7
20260507122244 58 47 2.0 3.0 0.00 0.29 0.29 95 1013.7
20260507121740 59 81 0.0 3.0 0.00 0.29 0.29 95 1013.7
20260507121236 59 25 0.0 3.0 0.00 0.29 0.29 96 1013.4
20260507120732 59 13 0.0 2.0 0.00 0.29 0.29 96 1013.1
20260507120230 58 34 1.0 2.0 0.02 0.29 0.29 96 1012.9
20260507115726 58 53 0.0 2.0 0.02 0.29 0.29 95 1013.0
20260507115222 58 82 2.0 2.0 0.00 0.28 0.28 95 1012.7
20260507114717 58 81 0.0 2.0 0.00 0.28 0.28 95 1012.7
20260507114215 58 57 0.0 2.0 0.00 0.28 0.28 95 1012.8
20260507113712 58 58 0.0 2.0 0.00 0.28 0.28 95 1012.6
20260507113209 58 63 1.0 2.0 0.00 0.28 0.28 95 1012.9
20260507112707 58 62 0.0 2.0 0.00 0.28 0.28 95 1012.8
20260507112203 58 81 1.0 2.0 0.00 0.28 0.28 95 1012.8
20260507111701 58 72 2.0 2.0 0.00 0.28 0.28 95 1012.8
20260507111157 58 37 2.0 3.0 0.00 0.28 0.28 95 1012.7
20260507110653 58 134 0.0 2.0 0.00 0.28 0.28 95 1012.3
20260507110151 58 34 1.0 3.0 0.00 0.28 0.28 95 1012.5
20260507105647 59 69 1.0 3.0 0.00 0.28 0.28 95 1012.7
20260507105143 59 54 1.0 2.0 0.00 0.28 0.28 95 1012.7
20260507104640 59 47 0.0 2.0 0.02 0.28 0.28 95 1012.7
20260507104136 59 42 2.0 3.0 0.02 0.28 0.28 95 1012.8
20260507103632 59 44 3.0 5.0 0.00 0.28 0.28 95 1012.5
20260507103124 59 19 0.0 5.0 0.00 0.28 0.28 95 1012.3
20260507102620 59 38 3.0 4.0 0.00 0.28 0.28 95 1012.1
20260507102116 60 37 1.0 2.0 0.00 0.28 0.28 95 1012.1
20260507101613 60 39 2.0 5.0 0.00 0.28 0.28 95 1011.8
20260507101109 60 26 1.0 5.0 0.00 0.28 0.28 95 1011.8
20260507100606 60 89 1.0 2.0 0.00 0.28 0.28 95 1011.7
20260507100104 61 77 2.0 5.0 0.00 0.28 0.28 95 1011.7
20260507095602 61 83 2.0 7.0 0.00 0.28 0.28 95 1011.4
20260507095058 61 41 2.0 4.0 0.00 0.28 0.28 95 1011.0
20260507094554 62 67 3.0 3.0 0.00 0.28 0.28 95 1011.3
20260507094052 62 28 1.0 3.0 0.00 0.28 0.28 95 1011.4
20260507093549 63 70 2.0 4.0 0.00 0.28 0.28 95 1011.5
20260507093048 64 30 0.0 5.0 0.02 0.28 0.28 95 1011.4
20260507092544 64 3 0.0 5.0 0.05 0.28 0.28 95 1011.2
20260507092040 65 9 2.0 3.0 0.02 0.28 0.28 95 1011.1
20260507091537 65 67 2.0 4.0 0.00 0.27 0.27 95 1011.0
20260507091033 65 60 1.0 3.0 0.00 0.27 0.27 95 1011.3
20260507090529 65 113 0.0 2.0 0.00 0.27 0.27 95 1011.0
20260507090026 65 67 0.0 3.0 0.00 0.27 0.27 95 1010.9
20260507085524 65 75 0.0 2.0 0.02 0.27 0.27 95 1010.9
20260507085020 65 62 1.0 2.0 0.02 0.27 0.27 95 1010.9
20260507084517 65 67 0.0 2.0 0.05 0.27 0.27 95 1010.8
20260507084014 65 109 0.0 2.0 0.07 0.27 0.27 95 1010.6
20260507083510 65 77 0.0 2.0 0.05 0.26 0.26 95 1011.0
20260507083007 65 20 2.0 3.0 0.12 0.26 0.26 95 1011.1
20260507082503 65 55 0.0 3.0 0.19 0.25 0.25 95 1010.7
20260507081959 65 82 0.0 3.0 0.12 0.23 0.23 95 1010.7
20260507081455 65 260 0.0 3.0 0.02 0.22 0.22 95 1010.9
20260507080953 65 73 0.0 2.0 0.00 0.21 0.21 95 1010.6
20260507080448 65 70 0.0 2.0 0.00 0.21 0.21 95 1010.8
20260507075944 65 62 0.0 3.0 0.00 0.21 0.21 95 1010.9
20260507075440 65 36 2.0 3.0 0.00 0.21 0.21 95 1011.0
20260507074931 65 50 1.0 2.0 0.00 0.21 0.21 95 1010.7
20260507074428 65 44 2.0 3.0 0.00 0.21 0.21 95 1010.9
20260507073926 66 130 1.0 4.0 0.00 0.21 0.21 95 1011.0
20260507073422 66 57 1.0 3.0 0.00 0.21 0.21 95 1011.0
20260507072919 66 62 0.0 3.0 0.02 0.21 0.21 95 1011.2
20260507072417 66 50 0.0 1.0 0.02 0.21 0.21 95 1011.1
20260507071915 66 55 1.0 3.0 0.07 0.21 0.21 95 1010.8
20260507071411 66 21 2.0 2.0 0.26 0.20 0.20 95 1010.8
20260507070907 66 89 1.0 2.0 0.47 0.19 0.19 95 1010.9
20260507070405 66 102 1.0 2.0 0.45 0.15 0.15 95 1010.9
20260507065901 66 275 0.0 2.0 0.47 0.11 0.11 95 1010.9
20260507065358 66 69 1.0 3.0 0.38 0.08 0.08 95 1010.7
20260507064855 66 353 2.0 3.0 0.19 0.04 0.04 95 1009.7
20260507064354 66 121 3.0 4.0 0.07 0.02 0.02 95 1009.8
20260507063851 66 119 3.0 5.0 0.02 0.00 0.00 95 1010.6
20260507063348 66 85 1.0 2.0 0.02 0.00 0.00 95 1011.8
20260507062845 66 3 0.0 1.0 0.00 0.00 0.00 95 1011.5
20260507062341 66 45 0.0 2.0 0.00 0.00 0.00 95 1011.2
20260507061839 66 61 1.0 2.0 0.00 0.00 0.00 95 1011.3
20260507061337 66 32 0.0 2.0 0.00 0.00 0.00 95 1011.6
20260507060836 66 119 0.0 2.0 0.00 0.00 0.00 95 1011.6
20260507060332 66 89 0.0 1.0 0.00 0.00 0.00 95 1011.5
20260507055829 66 122 0.0 2.0 0.00 0.00 0.00 95 1011.6
20260507055324 66 143 1.0 1.0 0.00 0.00 0.00 95 1011.7
20260507054821 66 102 1.0 2.0 0.00 0.00 0.00 94 1011.6
20260507054316 66 99 1.0 3.0 0.00 0.00 0.00 94 1011.6
20260507053814 66 95 1.0 2.0 0.00 0.00 0.00 94 1011.9
20260507053312 66 15 2.0 2.0 0.00 0.00 0.00 94 1012.2
20260507052810 66 63 1.0 2.0 0.00 0.00 0.00 94 1012.2
20260507052301 66 49 0.0 2.0 0.00 0.00 0.00 94 1012.3
20260507051759 66 67 0.0 2.0 0.00 0.00 0.00 94 1012.3
20260507051256 66 80 1.0 3.0 0.00 0.00 0.00 94 1012.1
20260507050753 66 37 1.0 2.0 0.00 0.00 0.00 94 1012.2
20260507050249 66 55 1.0 2.0 0.00 0.00 0.00 94 1012.3
20260507045746 66 230 0.0 2.0 0.00 0.69 0.69 94 1012.5
20260507045242 66 86 1.0 2.0 0.00 0.69 0.69 94 1012.1
20260507044740 66 4 0.0 2.0 0.00 0.69 0.69 94 1012.3
20260507044236 66 242 0.0 2.0 0.00 0.69 0.69 94 1012.2
20260507043732 66 0 0.0 2.0 0.00 0.69 0.69 94 1012.1
20260507043229 66 173 0.0 2.0 0.00 0.69 0.69 94 1011.9
20260507042725 66 59 2.0 3.0 0.00 0.69 0.69 94 1011.7
20260507042220 66 49 0.0 2.0 0.00 0.69 0.69 94 1012.1
20260507041718 67 39 0.0 3.0 0.00 0.69 0.69 94 1012.8
20260507041214 66 234 1.0 3.0 0.00 0.69 0.69 94 1013.0
20260507040712 66 104 0.0 3.0 0.02 0.69 0.69 94 1012.7
20260507040207 66 195 0.0 3.0 0.05 0.69 0.69 94 1013.1
20260507035704 67 23 1.0 2.0 0.05 0.68 0.68 94 1012.9
20260507035159 67 257 1.0 3.0 0.12 0.68 0.68 94 1012.9
20260507034656 67 5 0.0 4.0 0.14 0.67 0.67 94 1012.3
20260507034154 67 253 0.0 3.0 0.26 0.66 0.66 94 1011.6
20260507033653 67 10 0.0 1.0 0.57 0.65 0.65 94 1011.5
20260507033149 67 129 0.0 3.0 0.64 0.61 0.61 94 1011.7
20260507032647 67 110 0.0 2.0 0.35 0.54 0.54 94 1012.4
20260507032142 67 129 0.0 2.0 0.17 0.49 0.49 94 1012.2
20260507031639 67 107 0.0 3.0 0.12 0.47 0.47 94 1012.5
20260507031136 67 124 2.0 4.0 0.09 0.46 0.46 94 1013.1
20260507030633 67 130 0.0 1.0 0.12 0.45 0.45 94 1012.9
20260507030131 67 75 0.0 2.0 0.17 0.45 0.45 94 1012.8
20260507025628 67 79 1.0 3.0 0.19 0.43 0.43 94 1013.1
20260507025124 67 130 2.0 3.0 0.54 0.42 0.42 94 1013.3
20260507024622 68 37 2.0 3.0 0.78 0.39 0.39 93 1013.0
20260507024119 68 120 3.0 5.0 0.78 0.32 0.32 93 1012.5
20260507023615 68 89 2.0 2.0 0.40 0.24 0.24 93 1013.0
20260507023113 68 75 0.0 1.0 0.14 0.18 0.18 93 1012.8
20260507022609 68 32 2.0 2.0 0.12 0.17 0.17 93 1012.8
20260507022105 69 25 1.0 2.0 0.02 0.16 0.16 93 1012.7
20260507021601 69 27 2.0 3.0 0.00 0.15 0.15 93 1012.6
20260507021057 69 61 1.0 2.0 0.00 0.15 0.15 93 1012.7
20260507020556 69 35 2.0 3.0 0.00 0.15 0.15 93 1012.3
20260507020051 70 28 2.0 3.0 0.00 0.15 0.15 93 1012.2
20260507015550 70 72 2.0 3.0 0.00 0.15 0.15 93 1012.1
20260507015047 71 37 3.0 4.0 0.00 0.15 0.15 93 1012.0
20260507014543 72 37 0.0 3.0 0.00 0.15 0.15 94 1012.1
20260507014039 72 268 2.0 5.0 0.00 0.15 0.15 94 1012.2
20260507013536 72 23 1.0 1.0 0.00 0.15 0.15 94 1011.9
20260507013033 71 21 0.0 1.0 0.00 0.15 0.15 94 1011.7
20260507012531 72 135 2.0 3.0 0.00 0.15 0.15 94 1011.3
20260507012026 72 63 0.0 1.0 0.00 0.15 0.15 94 1011.1
20260507011524 72 75 0.0 1.0 0.00 0.15 0.15 94 1011.6
20260507011020 72 135 1.0 2.0 0.00 0.15 0.15 94 1011.8
20260507010515 72 124 0.0 1.0 0.00 0.15 0.15 94 1012.1
20260507010012 72 144 0.0 2.0 0.00 0.15 0.15 94 1012.1
20260507005509 72 155 2.0 4.0 0.00 0.15 0.15 94 1011.3
20260507005005 72 157 2.0 2.0 0.00 0.15 0.15 93 1010.9
20260507004502 72 104 0.0 1.0 0.00 0.15 0.15 93 1011.0
20260507004000 72 46 0.0 1.0 0.00 0.15 0.15 94 1011.7
20260507003455 72 89 0.0 0.0 0.02 0.15 0.15 93 1011.4
20260507002950 72 107 1.0 3.0 0.02 0.15 0.15 93 1011.1
20260507002447 72 116 2.0 3.0 0.02 0.15 0.15 93 1012.0
20260507001944 72 50 0.0 1.0 0.02 0.15 0.15 93 1012.4
20260507001440 72 147 1.0 2.0 0.00 0.15 0.15 93 1012.0
20260507000938 72 37 0.0 1.0 0.00 0.15 0.15 93 1011.5
20260507000435 72 136 2.0 3.0 0.00 0.15 0.15 93 1011.1
20260506235929 72 153 2.0 2.0 0.00 0.15 0.15 93 1011.5
20260506235426 72 144 0.0 2.0 0.00 0.15 0.15 93 1011.7
20260506234921 72 122 1.0 2.0 0.00 0.15 0.15 93 1011.8
20260506234420 72 110 0.0 3.0 0.00 0.15 0.15 93 1012.0
20260506233917 72 174 2.0 5.0 0.00 0.15 0.15 93 1011.7
20260506233413 73 151 2.0 3.0 0.00 0.15 0.15 93 1011.4
20260506232910 73 131 2.0 3.0 0.00 0.15 0.15 92 1012.0
20260506232406 73 62 0.0 0.0 0.00 0.15 0.15 92 1012.2
20260506231902 73 37 0.0 2.0 0.00 0.15 0.15 92 1012.0
20260506231400 73 37 0.0 1.0 0.00 0.15 0.15 92 1011.9
20260506230857 73 142 0.0 1.0 0.00 0.15 0.15 92 1012.4
20260506230354 73 109 0.0 3.0 0.00 0.15 0.15 92 1012.2
20260506225850 73 156 2.0 3.0 0.00 0.15 0.15 92 1012.3
20260506225348 73 117 0.0 1.0 0.00 0.15 0.15 92 1012.2
20260506224844 73 157 2.0 2.0 0.00 0.15 0.15 92 1012.4
20260506224342 73 159 1.0 6.0 0.00 0.15 0.15 92 1011.9
20260506223838 74 126 0.0 3.0 0.00 0.15 0.15 92 1011.6
20260506223333 74 140 1.0 3.0 0.00 0.15 0.15 92 1011.7
20260506222831 74 124 0.0 3.0 0.00 0.15 0.15 93 1011.6
20260506222326 73 132 1.0 2.0 0.00 0.15 0.15 93 1011.7
20260506221824 73 112 2.0 4.0 0.00 0.15 0.15 93 1011.7
20260506221322 73 104 0.0 2.0 0.00 0.15 0.15 93 1011.8
20260506220819 73 113 0.0 1.0 0.00 0.15 0.15 93 1012.2
20260506220314 73 188 3.0 3.0 0.00 0.15 0.15 93 1012.2
20260506215811 73 126 1.0 2.0 0.00 0.15 0.15 93 1011.8
20260506215307 73 142 0.0 1.0 0.00 0.15 0.15 93 1012.1
20260506214803 73 117 1.0 2.0 0.00 0.15 0.15 93 1012.2
20260506214300 73 153 1.0 3.0 0.00 0.15 0.15 93 1012.1
20260506213758 73 122 1.0 5.0 0.00 0.15 0.15 93 1012.2
20260506213254 72 141 2.0 3.0 0.00 0.15 0.15 92 1012.0
20260506212752 72 131 0.0 3.0 0.00 0.15 0.15 92 1012.2
20260506212248 72 115 1.0 3.0 0.02 0.15 0.15 92 1012.2
20260506211743 72 136 2.0 2.0 0.05 0.15 0.15 92 1012.1
20260506211239 72 115 1.0 3.0 0.05 0.14 0.14 91 1012.3
20260506210737 72 154 2.0 2.0 0.09 0.14 0.14 91 1012.4
20260506210233 73 107 0.0 5.0 0.19 0.13 0.13 91 1012.8
20260506205730 73 109 1.0 3.0 0.17 0.12 0.12 90 1012.6
20260506205226 73 122 0.0 3.0 0.05 0.10 0.10 90 1012.7
20260506204718 73 126 1.0 3.0 0.02 0.09 0.09 89 1012.6
20260506204215 73 124 0.0 2.0 0.05 0.09 0.09 88 1012.7
20260506203713 73 138 2.0 3.0 0.09 0.09 0.09 87 1012.7
20260506203209 73 130 1.0 2.0 0.24 0.09 0.09 86 1012.8
20260506202702 74 113 0.0 2.0 0.35 0.07 0.07 85 1012.9
20260506202157 74 143 1.0 4.0 0.19 0.04 0.04 84 1013.1
20260506201655 75 322 0.0 2.0 0.07 0.01 0.01 83 1012.9
20260506201151 75 117 0.0 2.0 0.05 0.01 0.01 83 1012.8
20260506200648 75 114 0.0 1.0 0.00 0.00 0.00 82 1013.0
20260506200144 75 121 2.0 2.0 0.00 0.00 0.00 82 1013.0
20260506195641 75 131 1.0 3.0 0.00 0.00 0.00 82 1013.2
20260506195137 75 113 0.0 3.0 0.00 0.00 0.00 82 1013.1
20260506194635 76 100 1.0 3.0 0.00 0.00 0.00 82 1013.4
20260506194131 76 63 2.0 3.0 0.00 0.00 0.00 82 1013.4
20260506193629 76 115 0.0 2.0 0.00 0.00 0.00 81 1013.4
20260506193126 76 157 2.0 5.0 0.00 0.00 0.00 81 1013.7
20260506192623 76 111 2.0 4.0 0.00 0.00 0.00 81 1013.8
20260506192118 76 133 2.0 2.0 0.00 0.00 0.00 81 1013.9
20260506191615 76 117 0.0 3.0 0.00 0.00 0.00 81 1013.6
20260506191110 76 72 2.0 3.0 0.00 0.00 0.00 80 1013.8
20260506190603 76 110 1.0 6.0 0.00 0.00 0.00 80 1013.8
20260506190100 76 94 2.0 4.0 0.00 0.00 0.00 80 1013.8
20260506185557 77 156 1.0 4.0 0.00 0.00 0.00 80 1014.0
20260506185053 76 109 3.0 3.0 0.00 0.00 0.00 79 1013.9
20260506184551 77 116 2.0 3.0 0.00 0.00 0.00 80 1014.1
20260506184048 77 116 4.0 5.0 0.00 0.00 0.00 80 1014.0
20260506183544 77 148 2.0 4.0 0.00 0.00 0.00 79 1013.8
20260506183040 77 152 1.0 4.0 0.00 0.00 0.00 80 1014.0
20260506182538 77 136 3.0 5.0 0.00 0.00 0.00 80 1014.2
20260506182035 76 154 3.0 6.0 0.00 0.00 0.00 81 1014.0
20260506181533 76 119 1.0 2.0 0.00 0.00 0.00 81 1013.9
20260506181029 75 117 3.0 4.0 0.00 0.00 0.00 81 1014.0
20260506180526 75 109 2.0 6.0 0.00 0.00 0.00 82 1014.0
20260506180023 75 132 1.0 4.0 0.00 0.00 0.00 81 1013.9
20260506175519 75 120 2.0 4.0 0.00 0.00 0.00 81 1014.1
20260506175016 75 143 3.0 5.0 0.00 0.00 0.00 81 1014.1
20260506174515 75 107 2.0 4.0 0.00 0.00 0.00 81 1014.0
20260506174010 75 132 3.0 5.0 0.00 0.00 0.00 80 1014.2
20260506173508 76 128 3.0 5.0 0.00 0.00 0.00 80 1014.4
20260506173005 75 107 2.0 3.0 0.00 0.00 0.00 80 1014.4
20260506172502 75 103 0.0 4.0 0.00 0.00 0.00 80 1014.4
20260506171958 75 112 3.0 6.0 0.00 0.00 0.00 79 1014.5
20260506171455 76 152 3.0 7.0 0.00 0.00 0.00 79 1014.5
20260506170953 76 121 2.0 4.0 0.00 0.00 0.00 79 1014.4
20260506170449 76 34 1.0 3.0 0.00 0.00 0.00 79 1014.5
20260506165942 75 113 1.0 3.0 0.00 0.00 0.00 79 1014.4
20260506165440 76 128 3.0 6.0 0.00 0.00 0.00 78 1014.5
20260506164935 76 137 3.0 5.0 0.00 0.00 0.00 78 1014.6
20260506164432 76 36 1.0 2.0 0.00 0.00 0.00 77 1014.4
20260506163925 76 117 0.0 6.0 0.00 0.00 0.00 78 1014.8
20260506163420 76 115 1.0 4.0 0.00 0.00 0.00 77 1014.5
20260506162915 77 145 4.0 6.0 0.00 0.00 0.00 76 1014.6
20260506162413 77 98 2.0 4.0 0.00 0.00 0.00 77 1014.8
20260506161910 77 97 2.0 3.0 0.00 0.00 0.00 76 1014.5
20260506161408 77 314 2.0 4.0 0.00 0.00 0.00 76 1014.4
20260506160905 77 82 0.0 5.0 0.00 0.00 0.00 76 1014.6
20260506160402 77 310 0.0 2.0 0.00 0.00 0.00 76 1014.5
20260506155900 77 312 1.0 7.0 0.00 0.00 0.00 76 1014.3
20260506155357 77 129 0.0 7.0 0.00 0.00 0.00 76 1014.3
20260506153519 76 139 2.0 4.0 0.00 0.00 0.00 78 1014.5
20260506153017 75 140 2.0 3.0 0.00 0.00 0.00 79 1014.2
20260506152514 75 117 2.0 4.0 0.00 0.00 0.00 79 1014.2
20260506152012 74 178 1.0 4.0 0.00 0.00 0.00 79 1014.3
20260506151509 74 142 2.0 3.0 0.00 0.00 0.00 79 1014.4
20260506151006 74 124 0.0 3.0 0.00 0.00 0.00 79 1014.3
20260506150502 74 114 2.0 3.0 0.00 0.00 0.00 79 1014.3
20260506145959 74 110 2.0 3.0 0.00 0.00 0.00 79 1014.3
20260506145456 74 114 2.0 3.0 0.00 0.00 0.00 79 1014.5
20260506144954 74 89 0.0 2.0 0.00 0.00 0.00 79 1014.4
20260506144450 74 110 1.0 5.0 0.00 0.00 0.00 80 1014.5
20260506143948 74 170 0.0 3.0 0.00 0.00 0.00 80 1014.4
20260506143444 73 100 1.0 4.0 0.00 0.00 0.00 81 1014.5
20260506142943 73 89 0.0 5.0 0.00 0.00 0.00 80 1014.3
20260506142441 73 116 2.0 6.0 0.00 0.00 0.00 80 1014.6